Regional Weather Roundup
Issued by NWS Sioux Falls, SD

Home | Current Version | Previous Version | Graphics & Text | Print | Product List | Glossary Off
Versions: 1 2 3 4 5 6 7 8 9 10 11 12 13 14 15 16 17 18 19 20 21 22 23 24 25 26 27 28 29 30 31 32 33 34 35 36 37 38 39 40 41 42 43 44 45 46 47 48 49 50

000
ASUS43 KFSD 281110
RWRFSD

WEATHER ROUNDUP FOR SE SOUTH DAKOTA/SW MINNESOTA/NW IOWA
NATIONAL WEATHER SERVICE SIOUX FALLS SD
600 AM CDT THU AUG 28 2014

NOTE: "FAIR" INDICATES FEW OR NO CLOUDS BELOW 12,000 FEET WITH NO
SIGNIFICANT WEATHER AND OR OBSTRUCTIONS TO VISIBILITY.


SDZ038>040-050-052>070-281200-
SOUTHEAST SOUTH DAKOTA

CITY           SKY/WX    TMP DP  RH WIND       PRES   REMARKS
CHAMBERLAIN    CLOUDY    66  66  99 E8        29.93S
HURON          CLOUDY    67  66  97 E5        29.95S
MADISON        CLOUDY    64  64 100 SE9       29.99F
MITCHELL       RAIN      68  67  96 SE9       29.94F FOG
SIOUX FALLS    LGT RAIN  67  65  93 SE10      29.98F FOG
WINNER         CLOUDY    68  67  96 E8        29.92F
YANKTON        CLOUDY    68  66  94 E9        29.94F
$$

MNZ071-072-080-081-089-090-097-098-281200-
SOUTHWEST MINNESOTA

CITY           SKY/WX    TMP DP  RH WIND       PRES   REMARKS
FAIRMONT       CLOUDY    61  57  88 SE5       30.04F
JACKSON        CLOUDY    64  59  82 SE8       30.04F
LUVERNE        CLOUDY    68  63  83 SE8       30.00F
MARSHALL       CLOUDY    64  57  77 SE9       30.00F
MONTEVIDEO     CLOUDY    63  61  94 S7        30.03F
PIPESTONE      CLOUDY    64  63  94 SE7       30.01S
REDWOOD FALLS  MOCLDY    62  59  90 SE8       30.04S
TRACY          CLOUDY    64  61  90 SE5       30.02F
WINDOM         CLOUDY    63  61  94 SE7       30.04S
WORTHINGTON    CLOUDY    63  63 100 E7        30.04S
$$

IAZ001>003-012>014-020>022-031-032-NEZ013-014-SDZ071-281200-
NORTHWEST IOWA

CITY           SKY/WX    TMP DP  RH WIND       PRES   REMARKS
DENISON        LGT RAIN  68  68 100 E8        29.98F
ESTHERVILLE    CLOUDY    63  61  93 SE7       30.04S
LE MARS        LGT RAIN  68  68 100 SE8       29.99S
ORANGE CITY    RAIN      68  66  94 SE3       29.99F
SHELDON        DRIZZLE   66  66 100 E6        29.99F
SIOUX CITY     RAIN      69  67  93 SE9       29.98F FOG
SPENCER        LGT RAIN  66  63  90 SE12      30.02F
STORM LAKE     CLOUDY    66  66 100 E7        30.01F FOG
$$

ABBREVIATIONS USED IN REMARKS
   TC - TEMPERATURE IN CELSIUS
  WCI - WIND CHILL INDEX
   HX - HEAT INDEX
  VSB - VISIBILITY



USA.gov is the U.S. government's official web portal to all federal, state and local government web resources and services.